Weather in Stepantsevo

Russia / Vladimir Oblast     56°07′58″N   41°42′40″E
temp.,
°C
wind,
m/s
gust,
m/s
humid.,
%
clouds,
%
prec.,
mm/h
press.,
hPa
HPBL,
m
25 february, thu
thu2500:00−16s4995100 0.5 1030423
03:00−16s41095100 1.1 1027447
06:00−16s51195100 2.0 1022449
09:00−13s51294100 3.6 1017445
12:00−10s4994100 3.4 1014378
15:00−7s2595100 4.3 1012195
18:00−4w0198100 0.5 101159
21:00−1nw1598100 0.6 1012163
26 february, fri
fri2600:00+1w3898100 0.2 1011338
03:00+1w3897100 0.2 1011331
06:000sw2499100 0.6 1008137
09:00+1sw3799100 1.3 1007198
12:00+2sw411100100 1.4 1003378
15:00+3wsw513100100 1.9 1000463
18:00+2w61598100 2.5 997799
21:00+2w61491100 2.6 997859
27 february, sat
sat2700:00+1w71396100 0.1 9961057
03:000wnw71396100 0.4 9961049
06:000wnw61297100 0.4 995945
09:00−4nnw51095100 1.9 997477
12:00−7nnw5991100 0.3 999686
15:00−8nnw5989100 0.5 1002748
18:00−9nnw4992100 0.2 1005635
21:00−10nnw3894100 0.3 1008526
28 february, sun
sun2800:00−12nnw3896100 0.1 1009286
03:00−14nnw389692 0.1 1012221
06:00−15nnw379551 0.0 1013237
09:00−14nnw379247 0.0 1015312
12:00−10nnw478985 0.0 1016504
15:00−8nnw478893 0.1 1017646
18:00−9nnw3992100 0.1 1018610
21:00−10n2894100 0.2 1021306
1 march, mon
mon100:00−13n239624 0.0 102353
03:00−13nnw229752 0.0 102430
06:00−13nw129884 0.0 102520
09:00−11wnw129791 0.1 102699
12:00−5w249087 0.0 1026349
15:00−3wsw369087 0.0 1024468
18:00−4wsw41094100 0.0 1022451
21:00−1wsw51294100 0.2 1020604